Location: Garbet
(42.8837°N, 1.2115°E)
Time: 21:42:10
(UTC+00:00)

Helios 1A Rocket - Pass Details

Date: 13 December 2025
Orbit: 431 x 441 km, 98.3° (Epoch: 21 January)

Event Time Altitude Azimuth Distance (km) Brightness Sun altitude
Exits shadow 17:56:13 19° 134° (SE) 1,166 4.2 -16.7°
Drops below altitude 10° 17:57:38 10° 154° (SSE) 1,593 5.1 -17.0°
Sets 17:59:54 0° 168° (SSE) 2,461 6.2 -17.4°
